Skip Page Navigation
NASA JPL Caltech
NASA Logo - Jet Propulsion Laboratory + View the NASA Portal
+ Near-Earth Object (NEO) Program
Search JPL
JPL Home Earth Solar System Stars & Galaxies Technology
JPL Solar System Dynamics
BODIES ORBITS EPHEMERIDES TOOLS PHYSICAL DATA DISCOVERY FAQ SITE MAP
JPL Small-Body Database Browser
Search: [ help ]  
(2005 JU81)
Classification: Apollo [NEO, PHA]          SPK-ID: 3278078
Ephemeris | Orbit Diagram | Orbital Elements | Physical Parameters | Close-Approach Data ]

[ hide orbit diagram ]
Orbit Diagram
Note: Make sure you have Java enabled on your browser to see the applet. This applet is provided as a 3D orbit visualization tool. The applet was implemented using 2-body methods, and hence should not be used for determining accurate long-term trajectories (over several years or decades) or planetary encounter circumstances. For accurate long-term ephemerides, please instead use our Horizons system.
Orbit Viewer

Additional Notes: the orbits shown in the applet are color coded. The planets are white lines, and the asteroid/comet is a blue line. The bright white line indicates the portion of the orbit that is above the ecliptic plane, and the darker portion is below the ecliptic plane. Likewise for the asteroid/comet orbit, the light blue indicates the portion above the ecliptic plane, and the dark blue the portion below the ecliptic plane.

Orbit Viewer applet originally written and kindly provided by Osamu Ajiki (AstroArts), and further modified by Ron Baalke (JPL).


Orbital Elements at Epoch 2456400.5 (2013-Apr-18.0) TDB
Reference: JPL 12 (heliocentric ecliptic J2000)
 Element Value Uncertainty (1-sigma)   Units 
e .2774992758674349 3.538e-07  
a 1.116581594692523 4.232e-08 AU
q .8067310107184422 4.2552e-07 AU
i 17.28858674291101 0.0001091 deg
node 56.3654640761115 1.5158e-05 deg
peri 72.45322247428946 7.5641e-05 deg
M 331.0990989047536 2.204e-05 deg
tp 2456435.097363702901
(2013-May-22.59736370)
2.8231e-05 JED
period 430.9571833762946
1.18
2.4501e-05
6.708e-08
d
yr
n .8353498070959462 4.7492e-08 deg/d
Q 1.426432178666604 5.4064e-08 AU
  Orbit Determination Parameters
   # obs. used (total)      70  
   data-arc span      2011 days (5.51 yr)  
   first obs. used      2005-05-12  
   last obs. used      2010-11-13  
   planetary ephem.      DE405  
   SB-pert. ephem.      SB405-CPV-2  
   condition code      0  
   fit RMS      .43219  
   data source      ORB  
   producer      Otto Matic  
   solution date      2011-Sep-14 20:02:12  

Additional Information
 Earth MOID = .0296203 AU 
 T_jup = 5.510 
[ show covariance matrix ]

Ephemeris | Orbit Diagram | Orbital Elements | Physical Parameters | Close-Approach Data ]

Physical Parameter Table
Parameter Symbol Value Units Sigma Reference Notes
absolute magnitude H 21.736 mag .33378 12 autocmod 2.5a

[ show close-approach data ]
Ephemeris | Orbit Diagram | Orbital Elements | Physical Parameters | Close-Approach Data ]
ABOUT SSD CREDITS/AWARDS PRIVACY/COPYRIGHT GLOSSARY LINKS
FirstGov 2013-May-21 03:41 UT
(server date/time)  
NASA Home Page
Site Manager:   Donald K. Yeomans
Webmaster  Alan B. Chamberlin